Probability
0 0 0 0 0 0 0 0 0 0 0 0 0 0 0 0 0 0 0 0 0 0 0 0 0 0 0 0 0 0 0 0 0 0 0 0 0 0 0 0 0 0 0
0 0 0 0 0 0 0 0 0 0 0 0 0 0 0 0 0 0 0 0 0 0 0 0 0 0 0 0 0 0 0 0 0 0 0 0 0 0 0 0 0 0 0
0 0 0 0 0 0 0 0 0 0 0 0 0 0 0 0 0 0 0 0 0 0 0 0 0 0 0 0 0 0 0 0 0 0 0 0 0 0 0 0 0 0 0
0 0 0 0 0 0 0 0 0 0 0 0 0 0 0 0 0 0 0 0 0 0 0 0 0 0 0 0 0 0 0 0 0 0 0 0 0 0 0 0 0 0 0
0 0 0 0 0 0 0 0 0 0 0 0 0 0 0 0 0 0 0 0 0 0 0 0 0 0 0 0 0 0 0 0 0 0 0 0 0 0 0 0 0 0 0
0 0 0 0 0 0 0 0 0 0 0 0 0 0 0 0 0 0 0 0 0 0 0 0 0 0 0 0 0 0 0 0 0 0 0 0 0 0 0 0 0 0 0
0 0 0 0 0 0 0 0 0 0 0 0 0 0 0 0 0 0 0 0 0 0 0 0 0 0 0 0 0 0 0 0 0 0 0 0 0 0 0 0 0 0 0
0 0 0 0 0 0 0 0 0 0 0 0 0 0 0 0 0 0 0 0 0 0 0 0 0 0 0 0 0 0 0 0 0 0 0 0 0 0 0 0 0 0 0
0 0 0 0 0 0 0 0 0 0 0 0 0 0 0 0 0 0 0 0 0 0 0 0 0 0 0 0 0 0 0 0 0 0 0 0 0 0 0 0 0 0 0
0 0 0 0 0 0 0 0 0 0 0 0 0 0 0 0 0 0 0 0 0 0 0 0 0 0 0 0 0 0 0 0 0 0 0 0 0 0 0 0 0 0 0
0 0 0 0 0 0 0 0 0 0 0 0 0 0 0 0 0 0 0 0 0 0 0 0 0 0 0 0 0 0 0 0 0 0 0 0 0 0 0 0 0 0 0
0 0 0 0 0 0 0 0 0 0 0 0 0 0 0 0 0 0 0 0 0 0 0 0 0 0 0 0 0 0 0 0 0 0 0 0 0 0 0 0 0 0 0
0 0 0 0 0 0 0 0 0 0 0 0 0 0 0 0 0 0 0 0 0 0 0 0 0 0 0 0 0 0 0 0 0 0 0 0 0 0 0 0 0 0 0
0 0 0 0 0 0 0 0 0 0 0 0 0 0 0 0 0 0 0 0 0 0 0 0 0 0 0 0 0 0 0 0 0 0 0 0 0 0 0 0 0 0 0
0 0 0 0 0 0 0 0 0 0 0 0 0 0 0 0 0 0 0 0 0 0 0 0 0 0 0 0 0 0 0 0 0 0 0 0 0 0 0 0 0 0 0
0 0 0 0 0 0 0 0 0 0 0 0 0 0 0 0 0 0 0 0 0 0 0 0 0 0 0 0 0 0 0 0 0 0 0 0 0 0 0 0 0 0 0
0 0 0 0 0 0 0 0 0 0 0 0 0 0 0 0 0 0 0 0 0 0 0 0 0 0 0 0 0 0 0 0 0 0 0 0 0 0 0 0 0 0 0
0 0 0 0 0 0 0 0 0 0 0 0 0 0 0 0 0 0 0 0 0 0 0 0 0 0 0 0 0 0 0 0 0 0 0 0 0 0 0 0 0 0 0
0 0 0 0 0 0 0 0 0 0 0 0 0 0 0 0 0 0 0 0 0 0 0 0 0 0 0 0 0 0 0 0 0 0 0 0 0 0 0 0 0 0 0
0 0 0 0 0 0 0 0 0 0 0 0 0 0 0 0 0 0 0 0 0 0 0 0 0 0 0 0 0 0 0 0 0 0 0 0 0 0 0 0 0 0 0
0 0 0 0 0 0 0 0 0 0 0 0 0 0 0 0 0 0 0 0 0 0 0 0 0 0 0 0 0 0 0 0 0 0 0 0 0 0 0 0 0 0 0
0 0 0 0 0 0 0 0 0 0 0 0 0 0 0 0 0 0 0 0 0 0 0 0 0 0 0 0 0 0 0 0 0 0 0 0 0 0 0 0 0 0 0
0 0 0 0 0 0 0 0 0 0 0 0 0 0 0 0 0 0 0 0 0 0 0 0 0 0 0 0 0 0 0 0 0 0 0 0 0 0 0 0 0 0 0
0 0 0 0 0 0 0 0 0 0 0 0 0 0 0 0 0 0 0 0 0 0 0 0 0 0 0 0 0 0 0 0 0 0 0 0 0 0 0 0 0 0 0
0 0 0 0 0 0 0 0 0 0 0 0 0 0 0 0 0 0 0 0 0 0 0 0 0 0 0 0 0 0 0 0 0 0 0 0 0 0 0 0 0 0 0
0 0 0 0 0 0 0 0 0 0 0 0 0 0 0 0 0 0 0 0 0 0 0 0 0 0 0 0 0 0 0 0 0 0 0 0 0 0 0 0 0 0 0
Wind_Speed
3 3 4 3 3 4 4 4 4 4 4 4 4 4 4 4 5 5 5 5 5 5 5 5 5 5 4 3 3 4 4 5 6 5 3 3 5 5 4 4 5 5 4
2 3 3 3 3 3 4 4 4 4 4 4 4 4 5 5 5 5 6 5 6 6 6 6 6 4 6 5 4 5 5 5 6 7 5 4 5 5 5 6 5 4 5
2 3 3 3 3 3 4 3 3 4 4 4 4 5 5 5 5 5 6 6 6 6 6 6 6 6 6 5 5 5 4 4 5 6 6 4 4 4 5 5 6 5 5
2 3 3 3 3 3 3 3 3 4 4 4 4 5 5 5 5 5 6 6 6 6 6 7 7 7 7 6 5 6 5 5 5 6 6 5 5 4 5 5 4 4 4
2 3 3 3 3 3 3 3 3 3 4 4 4 5 5 5 5 6 6 6 6 6 6 7 7 7 8 7 5 6 6 5 5 5 6 5 5 4 4 4 5 5 5
3 3 2 3 3 3 3 3 3 4 4 4 5 5 5 4 6 8 7 6 6 7 7 7 6 7 9 11 11 10 9 8 7 6 6 7 7 6 4 4 4 5 4
3 3 2 3 3 3 3 4 4 4 4 5 5 5 6 6 7 9 9 7 7 7 7 7 5 6 8 7 9 11 11 12 12 9 8 8 7 6 5 6 6 6 6
3 3 3 3 3 3 4 4 4 4 4 4 5 6 6 6 7 9 9 8 8 8 8 8 8 7 7 7 7 8 8 9 10 9 9 8 7 6 6 6 7 7 7
3 3 3 3 4 4 4 5 4 4 5 5 5 6 7 7 7 8 8 6 6 8 8 8 8 8 9 9 8 8 8 8 7 10 10 10 9 10 8 5 5 5 6
3 3 3 3 4 5 5 5 4 4 5 5 6 6 7 8 7 8 9 6 6 7 6 7 10 11 10 11 10 9 9 8 7 7 8 10 9 9 11 8 6 6 5
3 3 4 4 4 5 5 5 5 5 5 5 6 6 7 7 8 9 10 6 6 6 6 6 6 9 12 13 12 10 10 8 7 7 7 6 6 6 6 7 7 6 6
3 4 4 4 4 4 5 5 5 5 5 6 6 6 5 5 7 8 10 11 9 7 7 6 6 8 11 13 11 11 12 10 6 6 6 6 6 5 5 6 7 7 7
4 4 4 4 4 4 5 5 5 5 4 5 5 5 5 4 5 8 10 11 11 9 7 8 9 11 11 10 12 12 10 7 6 6 7 6 5 5 5 5 6 6 7
5 5 4 4 4 4 4 4 4 5 5 5 5 6 6 5 5 4 4 5 8 8 7 8 10 11 9 9 8 8 7 6 6 7 6 5 4 4 5 5 5 4 5
5 5 4 4 5 5 5 5 6 6 6 7 6 6 6 7 6 7 7 6 5 6 6 5 5 5 6 6 5 6 6 6 6 6 6 5 5 5 5 4 5 5 5
5 5 4 4 4 4 5 5 7 9 10 12 13 11 9 11 12 13 13 13 12 11 8 6 6 6 6 6 6 6 6 6 6 5 6 5 5 5 5 4 5 5 6
6 5 4 4 4 4 4 5 6 6 9 12 12 13 13 13 13 13 13 12 13 11 8 7 7 6 6 6 6 6 6 6 5 5 6 6 5 5 5 5 5 5 6
6 5 5 5 5 5 5 5 5 6 7 6 7 10 12 12 12 12 12 10 8 7 6 7 7 6 6 6 6 6 6 5 5 5 6 6 6 5 6 6 6 6 6
5 5 5 5 5 5 5 5 6 7 7 7 6 7 8 9 11 11 9 7 7 6 6 6 6 6 6 6 6 6 6 6 6 6 6 6 5 6 6 6 6 7 7
5 6 6 5 5 5 5 5 6 6 7 7 7 6 5 5 6 6 6 6 6 7 6 7 6 6 6 6 6 6 6 6 6 6 6 5 5 6 6 7 6 6 6
4 5 6 6 5 5 5 6 6 6 7 7 7 7 9 7 7 7 6 6 6 7 7 6 6 6 6 6 5 6 7 6 6 6 5 5 5 5 5 5 6 6 5
4 4 5 5 5 5 6 6 6 6 7 8 7 7 10 8 7 7 7 7 7 6 6 6 6 6 6 6 6 6 6 6 6 5 5 5 5 5 5 5 5 5 5
5 5 5 5 5 7 7 6 6 7 7 7 7 7 6 7 7 7 7 7 7 6 6 6 6 6 5 5 5 6 6 6 5 5 5 5 5 5 5 5 6 6 6
5 6 6 6 6 6 6 6 6 7 7 7 7 7 7 7 7 7 7 6 6 6 6 6 6 7 8 6 5 5 5 5 5 5 7 6 5 5 5 5 5 6 6
5 6 6 6 6 6 6 7 7 7 7 7 7 7 7 7 7 7 6 6 7 7 7 7 6 6 8 8 7 6 7 9 8 5 5 5 6 6 5 5 5 5 6
6 6 6 6 6 6 7 7 7 7 7 7 7 7 7 7 7 7 6 6 6 6 6 5 6 7 7 7 7 8 9 9 9 9 6 5 5 5 5 5 6 6 6
Wind_Direction
214 218 226 228 229 239 245 251 254 254 249 245 244 247 248 247 247 243 242 243 243 243 238 239 241 242 243 238 233 236 241 247 261 274 270 277 279 286 297 298 298 298 303
215 219 229 236 231 237 248 255 253 253 252 249 245 243 245 246 246 246 247 243 244 246 245 240 241 237 241 242 236 236 239 242 256 270 271 270 273 282 291 292 291 288 291
218 224 230 236 237 243 253 256 252 253 257 253 248 247 249 249 248 248 250 249 247 248 248 244 243 239 241 239 238 240 241 242 247 259 268 269 271 273 282 279 279 279 287
224 235 244 252 254 257 261 261 257 257 259 258 253 253 253 252 249 248 246 247 248 248 248 246 245 240 243 243 242 242 241 242 242 250 260 265 267 270 272 279 282 282 287
227 239 249 259 259 259 262 265 264 262 263 265 261 258 254 251 246 247 245 246 249 251 248 245 244 240 243 244 243 243 240 240 242 247 255 262 260 261 266 278 283 294 286
234 243 252 255 258 263 269 272 271 269 266 264 262 263 261 253 251 251 254 253 251 250 251 248 245 238 240 243 244 246 246 244 243 245 252 255 262 264 268 271 282 290 286
237 244 247 252 260 267 270 268 267 268 267 265 265 265 266 262 258 260 252 255 253 250 250 250 248 243 241 243 243 243 245 246 247 251 254 257 265 264 265 266 267 272 277
238 246 249 252 261 268 265 264 269 270 268 268 268 267 269 267 263 265 259 253 253 250 247 246 249 251 240 240 246 247 248 245 240 242 251 259 264 266 258 265 274 277 277
239 249 254 257 263 267 268 273 276 273 272 271 271 271 271 273 264 263 260 256 251 253 249 246 246 251 246 241 245 249 253 253 244 243 252 258 261 259 255 256 255 261 270
246 257 261 260 262 267 272 277 274 270 273 276 273 271 270 274 271 263 257 252 252 256 254 249 242 245 250 243 242 245 251 255 254 249 246 249 252 249 244 243 245 249 260
251 256 260 261 262 268 272 270 270 270 272 272 276 277 274 273 275 265 256 251 252 259 260 258 252 244 249 249 247 248 251 259 259 256 255 252 248 244 240 238 238 239 245
247 253 258 263 264 263 266 267 265 265 271 275 279 283 278 271 266 268 262 256 258 259 260 262 259 251 253 255 252 249 252 255 254 252 252 250 247 243 242 242 242 244 246
246 253 261 266 264 260 264 268 270 266 266 272 273 276 280 276 267 263 266 263 260 258 260 262 266 263 261 257 251 250 249 247 245 246 248 250 248 248 245 244 244 247 253
248 255 258 263 267 264 260 259 261 262 264 266 268 271 277 276 272 268 265 264 261 261 261 262 263 263 256 255 255 247 243 243 244 248 252 252 245 237 236 235 239 240 250
250 255 258 259 264 268 264 259 259 260 262 270 273 272 275 277 276 275 277 275 271 268 274 268 261 257 254 249 247 248 244 241 243 244 244 244 241 239 238 233 234 236 245
248 254 256 260 262 266 273 275 249 250 265 263 263 266 270 270 279 280 277 274 274 269 265 257 255 254 253 253 251 249 244 243 242 241 240 239 238 239 240 234 231 237 247
246 254 258 258 261 264 268 275 286 272 254 258 261 265 266 273 277 278 280 278 273 265 256 253 254 255 254 252 252 250 248 245 238 238 241 239 238 238 238 237 235 240 247
247 250 252 257 259 261 263 266 270 279 287 282 265 264 269 272 275 277 278 278 266 253 250 253 255 256 255 254 252 250 248 243 236 237 239 238 234 235 238 239 237 241 247
245 249 251 257 258 261 263 263 264 267 272 280 284 278 272 277 278 275 270 259 258 258 255 255 256 258 257 254 251 248 245 241 238 235 237 235 232 233 239 240 240 242 245
246 245 251 258 259 259 258 259 263 267 271 273 275 279 286 283 276 273 261 257 259 261 260 260 260 258 257 255 251 246 243 240 236 234 235 232 230 231 236 238 238 240 243
250 249 246 253 255 257 258 260 262 265 269 272 273 275 278 276 273 273 270 265 262 262 262 263 263 259 255 253 251 247 244 242 237 235 234 231 228 229 233 235 238 240 244
247 250 249 252 257 258 261 262 263 265 269 272 277 278 276 271 270 270 268 266 265 264 262 261 260 257 251 248 246 246 244 242 237 231 231 230 228 229 230 232 234 237 239
243 249 254 255 256 261 263 261 263 265 269 273 276 277 273 268 267 268 268 269 268 265 261 256 257 257 252 246 242 240 242 240 235 228 228 229 227 227 228 231 233 237 241
246 251 255 258 258 258 261 264 264 266 270 273 273 272 271 269 269 269 269 269 268 266 262 257 256 257 256 255 249 242 239 237 231 225 223 225 227 228 228 231 235 239 244
250 252 254 256 258 260 263 265 266 267 268 268 270 270 271 271 271 271 270 268 268 266 263 260 257 256 253 251 248 243 239 235 232 224 218 222 225 226 228 232 236 240 243
253 255 256 257 257 259 262 265 267 268 269 269 269 269 271 271 272 272 271 268 267 266 264 260 255 255 256 253 246 241 240 237 234 229 224 221 222 226 227 232 236 240 243